QZS-3 (MICHIBIKI-3) (42917 NORAD) Tracking and Keplerian Element Data

This shows tracking and keplerian element data for the satellite.

Feedback or suggestion? Click here.




ElementValue
Catalog42917
NameQZS-3 (MICHIBIKI-3)
Epoch Orbit2337
Epoch Day12.82292631
Epoch Year2024
RAAN223.9385
Inclination0.0742
Eccentricity0.0002386
Argument of Perigee75.2282
Mean Anonmoly235.9133
Mean Motion1.00273453
Decay Rate-3.39E-06
L11 42917U 17048A 24012.82292631 -.00000339 00000+0 00000+0 0 9999
L22 42917 0.0742 223.9385 0002386 75.2282 235.9133 1.00273453 23371



Live tracking and technical data element details for QZS-3 (MICHIBIKI-3) (NORAD 42917). QZS-3 (MICHIBIKI-3) can be tracked NOW for your location showing map with azimuth and elevation plus other details from your city location.







IsCatalogInMostPopularTable: catalog: 42917, numindb: 849
Update: records affected: 1



GetName: 42917 QZS-3 (MICHIBIKI-3)

Hit Count: updated at: Sat, 20 Apr 2024 10:33:06 GMT